FW7499 Weather Reports


time (UTC)temp
C
wind
direction
speed
KPH
gust
KPH
rain 1hr
cm
rain 24hr
cm
rain mn
cm
humidity
%
barometer
mb
20260902100011 23 352 0.0 3.2 0.00 0.00 0.00 72 1012.9
20260902095503 23 360 0.0 3.2 0.00 0.00 0.00 73 1012.9
20260902095004 23 360 0.0 1.6 0.00 0.00 0.00 72 1012.9
20260902094503 23 360 0.0 6.4 0.00 0.00 0.00 72 1012.9
20260902094006 23 360 0.0 6.4 0.00 0.00 0.00 72 1013.0
20260902093506 23 219 0.0 3.2 0.00 0.00 0.00 70 1013.0
20260902093012 23 216 0.0 3.2 0.00 0.00 0.00 67 1012.9
20260902092511 24 216 0.0 3.2 0.00 0.00 0.00 67 1012.9
20260902092007 24 216 0.0 3.2 0.00 0.00 0.00 66 1012.9
20260902091517 25 216 0.0 3.2 0.00 0.00 0.00 65 1012.8
20260902091010 25 216 0.0 3.2 0.00 0.00 0.00 64 1012.8
20260902090504 25 216 0.0 3.2 0.00 0.00 0.00 65 1012.8
20260902090017 25 216 0.0 3.2 0.00 0.00 0.00 66 1012.9
20260902085509 25 227 1.6 6.4 0.00 0.00 0.00 64 1012.9
20260902085015 25 349 1.6 6.4 0.00 0.00 0.00 64 1013.0
20260902084508 26 352 4.8 6.4 0.00 0.00 0.00 62 1013.0
20260902084008 25 344 1.6 8.0 0.00 0.00 0.00 63 1012.8
20260902083506 25 254 1.6 8.0 0.00 0.00 0.00 65 1012.9
20260902083008 25 287 1.6 4.8 0.00 0.00 0.00 67 1013.0
20260902082507 25 336 1.6 8.0 0.00 0.00 0.00 66 1013.0
20260902082012 25 352 3.2 8.0 0.00 0.00 0.00 66 1013.2
20260902081515 25 339 0.0 3.2 0.00 0.00 0.00 67 1013.2
20260902081008 25 339 0.0 6.4 0.00 0.00 0.00 65 1012.9
20260902080510 25 339 1.6 9.7 0.00 0.00 0.00 65 1013.0
20260902080011 25 15 4.8 9.7 0.00 0.00 0.00 65 1013.0
20260902075514 25 352 3.2 4.8 0.00 0.00 0.00 64 1012.7
20260902075009 25 288 1.6 4.8 0.00 0.00 0.00 63 1012.2
20260902074510 25 134 0.0 3.2 0.00 0.00 0.00 63 1012.1
20260902074014 25 134 0.0 4.8 0.00 0.00 0.00 63 1012.1
20260902073505 25 110 0.0 6.4 0.00 0.00 0.00 62 1012.1
20260902073020 25 180 1.6 6.4 0.00 0.00 0.00 62 1012.1
20260902072505 25 196 0.0 4.8 0.00 0.00 0.00 62 1012.0
20260902072013 25 246 0.0 3.2 0.00 0.00 0.00 62 1012.0
20260902071547 25 71 0.0 8.0 0.00 0.00 0.00 61 1012.0
20260902071010 25 201 0.0 8.0 0.00 0.00 0.00 62 1012.0
20260902070507 25 159 0.0 3.2 0.00 0.00 0.00 62 1012.0
20260902070012 25 107 0.0 3.2 0.00 0.00 0.00 62 1012.0
20260902065514 25 215 0.0 4.8 0.00 0.00 0.00 63 1012.0
20260902065013 25 189 1.6 4.8 0.00 0.00 0.00 63 1012.1
20260902064524 25 140 0.0 3.2 0.00 0.00 0.00 63 1012.1
20260902064007 25 138 0.0 3.2 0.00 0.00 0.00 64 1012.1
20260902063517 25 138 0.0 3.2 0.00 0.00 0.00 64 1012.1
20260902063022 25 198 0.0 3.2 0.00 0.00 0.00 62 1012.1
20260902062519 26 194 0.0 3.2 0.00 0.00 0.00 62 1012.0
20260902062012 26 209 0.0 4.8 0.00 0.00 0.00 62 1011.8
20260902061538 26 151 0.0 4.8 0.00 0.00 0.00 61 1011.8
20260902061006 26 146 0.0 6.4 0.00 0.00 0.00 61 1011.8
20260902060510 26 105 0.0 6.4 0.00 0.00 0.00 60 1011.7
20260902060015 26 215 0.0 4.8 0.00 0.00 0.00 61 1011.6
20260902055514 26 229 1.6 3.2 0.00 0.00 0.00 60 1011.6
20260902055014 26 306 0.0 4.8 0.00 0.00 0.00 61 1011.6
20260902054521 26 211 0.0 4.8 0.00 0.00 0.00 60 1011.5
20260902054014 26 160 0.0 4.8 0.00 0.00 0.00 60 1011.7
20260902053511 27 166 1.6 8.0 0.00 0.00 0.00 60 1011.8
20260902053016 27 185 1.6 8.0 0.00 0.00 0.00 60 1011.8
20260902052520 27 55 0.0 4.8 0.00 0.00 0.00 60 1011.8
20260902052009 27 180 0.0 4.8 0.00 0.00 0.00 59 1011.8
20260902051534 27 175 0.0 4.8 0.00 0.00 0.00 58 1011.9
20260902051013 27 229 0.0 8.0 0.00 0.00 0.00 59 1011.9
20260902050514 27 277 0.0 8.0 0.00 0.00 0.00 59 1011.9
20260902050014 27 139 1.6 8.0 0.00 0.00 0.00 58 1011.8
20260902045509 27 186 1.6 9.7 0.00 0.00 0.00 58 1011.8
20260902045013 27 222 0.0 9.7 0.00 0.00 0.00 59 1011.8
20260902044520 27 203 1.6 8.0 0.00 0.00 0.00 59 1011.8
20260902044012 27 140 1.6 3.2 0.00 0.00 0.00 58 1011.9
20260902043511 27 219 0.0 6.4 0.00 0.00 0.00 59 1011.9
20260902043033 27 194 0.0 6.4 0.00 0.00 0.00 59 1011.9
20260902042521 27 225 0.0 4.8 0.00 0.00 0.00 59 1011.9
20260902042016 28 173 1.6 4.8 0.00 0.00 0.00 59 1011.8
20260902041524 28 211 1.6 9.7 0.00 0.00 0.00 59 1011.9
20260902041003 27 128 1.6 9.7 0.00 0.00 0.00 61 1011.9
20260902040503 27 113 0.0 8.0 0.00 0.00 0.00 61 1011.9
20260902040013 27 166 0.0 4.8 0.00 0.00 0.00 62 1012.0
20260902035503 27 177 0.0 3.2 0.00 0.00 0.00 63 1012.0
20260902035003 27 194 0.0 3.2 0.00 0.00 0.00 63 1011.9
20260902034520 27 329 0.0 3.2 0.00 0.00 0.00 64 1012.0
20260902034007 27 186 0.0 3.2 0.00 0.00 0.00 65 1011.9
20260902033503 27 186 0.0 3.2 0.00 0.00 0.00 65 1011.9
20260902033003 27 185 0.0 3.2 0.00 0.00 0.00 65 1011.9
20260902032506 27 161 0.0 3.2 0.00 0.00 0.00 65 1011.9
20260902032004 27 161 0.0 3.2 0.00 0.00 0.00 64 1011.9
20260902031507 27 221 0.0 3.2 0.00 0.00 0.00 64 1011.9
20260902031003 27 221 0.0 3.2 0.00 0.00 0.00 66 1011.9
20260902030503 27 224 0.0 3.2 0.00 0.00 0.00 64 1011.9
20260902030003 27 224 0.0 4.8 0.00 0.00 0.00 66 1011.8
20260902025510 27 224 0.0 4.8 0.00 0.00 0.00 64 1011.8
20260902025008 27 119 0.0 3.2 0.00 0.00 0.00 66 1011.8
20260902024505 28 119 0.0 3.2 0.00 0.00 0.00 65 1011.7
20260902024007 28 119 0.0 3.2 0.00 0.00 0.00 64 1011.7
20260902023507 28 127 0.0 3.2 0.00 0.00 0.00 63 1011.6
20260902023024 28 184 0.0 3.2 0.00 0.00 0.00 64 1011.6
20260902022505 28 179 0.0 3.2 0.00 0.00 0.00 66 1011.5
20260902022003 28 179 0.0 3.2 0.00 0.00 0.00 66 1011.4
20260902021510 28 193 0.0 3.2 0.00 0.00 0.00 65 1011.3
20260902021003 28 193 0.0 3.2 0.00 0.00 0.00 65 1011.2
20260902020504 28 193 0.0 3.2 0.00 0.00 0.00 65 1011.1
20260902020011 28 193 0.0 3.2 0.00 0.00 0.00 64 1011.0
20260902015507 28 159 0.0 1.6 0.00 0.00 0.00 63 1010.9
20260902015004 28 159 0.0 3.2 0.00 0.00 0.00 64 1010.9
20260902014511 28 159 0.0 3.2 0.00 0.00 0.00 64 1010.8
20260902014003 28 159 0.0 3.2 0.00 0.00 0.00 63 1010.7
20260902013511 28 56 0.0 3.2 0.00 0.00 0.00 64 1010.7
20260902013007 28 71 0.0 3.2 0.00 0.00 0.00 65 1010.6
20260902012503 28 83 0.0 3.2 0.00 0.00 0.00 65 1010.6
20260902012016 29 83 0.0 3.2 0.00 0.00 0.00 64 1010.5
20260902011504 29 85 0.0 1.6 0.00 0.00 0.00 64 1010.6
20260902011007 29 85 0.0 3.2 0.00 0.00 0.00 64 1010.6
20260902010502 29 85 0.0 3.2 0.00 0.00 0.00 63 1010.6
20260902010009 30 85 0.0 3.2 0.00 0.00 0.00 62 1010.5
20260902005508 30 85 0.0 3.2 0.00 0.00 0.00 62 1010.5
20260902005006 30 85 0.0 1.6 0.00 0.00 0.00 60 1010.5
20260902004510 30 85 0.0 3.2 0.00 0.00 0.00 60 1010.5
20260902004003 30 85 0.0 3.2 0.00 0.00 0.00 59 1010.5
20260902003508 31 85 0.0 3.2 0.00 0.00 0.00 58 1010.4
20260902003017 31 85 0.0 3.2 0.00 0.00 0.00 55 1010.4
20260902002510 31 63 0.0 3.2 0.00 0.00 0.00 55 1010.4
20260902002004 32 182 0.0 3.2 0.00 0.00 0.00 54 1010.4
20260902001516 32 181 0.0 3.2 0.00 0.00 0.00 52 1010.4
20260902001009 32 191 0.0 4.8 0.00 0.00 0.00 53 1010.5
20260902000504 32 115 0.0 4.8 0.00 0.00 0.00 51 1010.5
20260902000016 32 140 0.0 4.8 0.00 0.00 0.00 52 1010.5
20260901235511 32 148 0.0 6.4 0.00 0.00 0.00 52 1010.6
20260901235003 33 205 0.0 9.7 0.00 0.00 0.00 52 1010.6
20260901234507 33 236 1.6 9.7 0.00 0.00 0.00 52 1010.6
20260901234007 33 171 1.6 6.4 0.00 0.00 0.00 52 1010.7
20260901233508 33 230 1.6 14.5 0.00 0.00 0.00 51 1010.7
20260901233014 33 253 3.2 14.5 0.00 0.00 0.00 49 1010.8
20260901232503 33 276 0.0 12.9 0.00 0.00 0.00 50 1010.8
20260901232015 33 277 1.6 8.0 0.00 0.00 0.00 50 1010.8
20260901231510 34 326 3.2 8.0 0.00 0.00 0.00 49 1010.7
20260901231006 34 260 1.6 8.0 0.00 0.00 0.00 50 1010.8
20260901230513 34 236 4.8 11.3 0.00 0.00 0.00 49 1010.9
20260901230012 34 185 3.2 11.3 0.00 0.00 0.00 50 1010.8
20260901225513 34 108 0.0 17.7 0.00 0.00 0.00 48 1010.9
20260901225009 34 198 3.2 17.7 0.00 0.00 0.00 50 1011.0
20260901224521 34 314 3.2 17.7 0.00 0.00 0.00 49 1011.0
20260901224005 34 235 3.2 11.3 0.00 0.00 0.00 50 1011.0
20260901223507 35 297 4.8 11.3 0.00 0.00 0.00 48 1011.0
20260901223009 35 218 3.2 14.5 0.00 0.00 0.00 49 1011.0
20260901222510 35 238 1.6 14.5 0.00 0.00 0.00 49 1011.0
20260901222009 35 160 4.8 14.5 0.00 0.00 0.00 49 1011.0
20260901221511 35 286 3.2 16.1 0.00 0.00 0.00 49 1011.1
20260901221012 34 206 3.2 16.1 0.00 0.00 0.00 49 1011.1
20260901220513 34 261 1.6 8.0 0.00 0.00 0.00 51 1011.2
20260901220009 34 213 3.2 12.9 0.00 0.00 0.00 50 1011.1
20260901215515 35 233 3.2 12.9 0.00 0.00 0.00 48 1011.3
20260901215014 35 202 1.6 9.7 0.00 0.00 0.00 50 1011.3
20260901214528 35 263 1.6 9.7 0.00 0.00 0.00 53 1011.3
20260901214011 35 308 3.2 11.3 0.00 0.00 0.00 50 1011.4
20260901213511 35 261 1.6 11.3 0.00 0.00 0.00 50 1011.4
20260901213029 35 346 1.6 11.3 0.00 0.00 0.00 51 1011.5
20260901212508 34 17 4.8 17.7 0.00 0.00 0.00 51 1011.5
20260901212006 34 64 1.6 17.7 0.00 0.00 0.00 51 1011.5
20260901211523 34 184 1.6 14.5 0.00 0.00 0.00 51 1011.6
20260901211012 34 313 3.2 14.5 0.00 0.00 0.00 50 1011.6
20260901210511 34 198 1.6 9.7 0.00 0.00 0.00 53 1011.7
20260901210021 34 281 3.2 12.9 0.00 0.00 0.00 50 1011.7
20260901205514 34 235 4.8 12.9 0.00 0.00 0.00 50 1011.7
20260901205013 34 234 1.6 8.0 0.00 0.00 0.00 52 1011.8
20260901204517 34 243 1.6 12.9 0.00 0.00 0.00 50 1011.8
20260901204018 34 172 4.8 17.7 0.00 0.00 0.00 51 1011.9
20260901203511 34 223 4.8 17.7 0.00 0.00 0.00 52 1012.0
20260901203012 34 180 3.2 12.9 0.00 0.00 0.00 50 1012.1
20260901202513 34 146 4.8 12.9 0.00 0.00 0.00 51 1012.2
20260901202014 34 271 3.2 11.3 0.00 0.00 0.00 51 1012.2
20260901201528 33 163 3.2 11.3 0.00 0.00 0.00 51 1012.3
20260901201010 33 273 4.8 11.3 0.00 0.00 0.00 52 1012.3
20260901200510 34 328 3.2 11.3 0.00 0.00 0.00 52 1012.5
20260901200022 34 198 3.2 14.5 0.00 0.00 0.00 52 1012.6
20260901195510 33 223 4.8 14.5 0.00 0.00 0.00 54 1012.6
20260901195015 33 225 4.8 14.5 0.00 0.00 0.00 52 1012.6
20260901194528 33 261 3.2 14.5 0.00 0.00 0.00 52 1012.6
20260901194009 33 297 3.2 17.7 0.00 0.00 0.00 51 1012.6
20260901193510 33 218 3.2 17.7 0.00 0.00 0.00 50 1012.7
20260901193019 33 93 6.4 14.5 0.00 0.00 0.00 54 1012.7
20260901192519 33 112 4.8 12.9 0.00 0.00 0.00 50 1012.8
20260901192016 33 32 3.2 11.3 0.00 0.00 0.00 51 1012.8
20260901191517 33 156 3.2 11.3 0.00 0.00 0.00 51 1012.9
20260901191003 33 227 3.2 8.0 0.00 0.00 0.00 52 1013.0
20260901190506 33 170 1.6 6.4 0.00 0.00 0.00 49 1013.1
20260901190019 33 74 1.6 6.4 0.00 0.00 0.00 51 1013.1
20260901185503 33 321 1.6 6.4 0.00 0.00 0.00 52 1013.1
20260901185013 33 248 1.6 11.3 0.00 0.00 0.00 52 1013.1
20260901184511 32 211 1.6 11.3 0.00 0.00 0.00 50 1013.2
20260901184002 33 170 1.6 3.2 0.00 0.00 0.00 52 1013.2
20260901183504 32 287 1.6 8.0 0.00 0.00 0.00 56 1013.2
20260901183003 32 150 3.2 8.0 0.00 0.00 0.00 52 1013.2
20260901182503 33 291 1.6 9.7 0.00 0.00 0.00 51 1013.2
20260901182003 32 99 1.6 9.7 0.00 0.00 0.00 52 1013.2
20260901181503 32 254 1.6 6.4 0.00 0.00 0.00 55 1013.3
20260901181009 32 123 1.6 6.4 0.00 0.00 0.00 51 1013.3
20260901180507 32 59 3.2 6.4 0.00 0.00 0.00 54 1013.4
20260901180004 32 219 1.6 9.7 0.00 0.00 0.00 56 1013.4
20260901175509 32 88 1.6 9.7 0.00 0.00 0.00 55 1013.5
20260901175005 32 40 1.6 6.4 0.00 0.00 0.00 55 1013.6
20260901174503 32 182 0.0 3.2 0.00 0.00 0.00 53 1013.7
20260901174003 31 113 1.6 6.4 0.00 0.00 0.00 53 1013.7
20260901173506 31 59 1.6 6.4 0.00 0.00 0.00 53 1013.7
20260901173006 31 319 1.6 9.7 0.00 0.00 0.00 53 1013.7
20260901172502 31 280 3.2 9.7 0.00 0.00 0.00 54 1013.8
20260901172002 31 83 3.2 9.7 0.00 0.00 0.00 54 1013.8
20260901171503 31 162 1.6 9.7 0.00 0.00 0.00 54 1013.9
20260901171004 31 274 0.0 6.4 0.00 0.00 0.00 56 1013.9
20260901170506 31 184 1.6 4.8 0.00 0.00 0.00 55 1013.9
20260901170008 31 71 1.6 6.4 0.00 0.00 0.00 56 1013.9
20260901165509 31 103 3.2 6.4 0.00 0.00 0.00 56 1013.9
20260901165004 31 297 1.6 6.4 0.00 0.00 0.00 56 1013.9
20260901164510 31 61 1.6 6.4 0.00 0.00 0.00 57 1013.9
20260901164006 31 56 1.6 6.4 0.00 0.00 0.00 56 1013.9
20260901163512 30 175 1.6 6.4 0.00 0.00 0.00 54 1013.9
20260901163007 30 266 3.2 6.4 0.00 0.00 0.00 55 1014.0
20260901162503 30 136 1.6 4.8 0.00 0.00 0.00 57 1014.0
20260901162011 30 163 1.6 4.8 0.00 0.00 0.00 56 1014.0
20260901161503 30 83 1.6 4.8 0.00 0.00 0.00 56 1013.9
20260901161004 30 306 3.2 6.4 0.00 0.00 0.00 54 1014.0
20260901160504 30 57 0.0 6.4 0.00 0.00 0.00 57 1014.0
20260901160012 29 251 1.6 6.4 0.00 0.00 0.00 57 1014.0
20260901155503 29 171 1.6 6.4 0.00 0.00 0.00 58 1014.0
20260901155006 30 270 1.6 8.0 0.00 0.00 0.00 55 1013.9
20260901154505 29 268 1.6 8.0 0.00 0.00 0.00 56 1013.9
20260901154004 29 133 1.6 8.0 0.00 0.00 0.00 54 1013.8
20260901153511 29 146 0.0 3.2 0.00 0.00 0.00 56 1013.8
20260901153017 29 289 0.0 6.4 0.00 0.00 0.00 58 1013.8
20260901152511 29 275 1.6 6.4 0.00 0.00 0.00 56 1013.8
20260901152003 28 261 0.0 6.4 0.00 0.00 0.00 58 1013.8
20260901151519 28 223 1.6 6.4 0.00 0.00 0.00 58 1013.8
20260901151009 28 292 3.2 6.4 0.00 0.00 0.00 57 1013.8
20260901150502 28 55 0.0 3.2 0.00 0.00 0.00 60 1013.8
20260901150004 28 186 0.0 4.8 0.00 0.00 0.00 59 1013.9
20260901145503 28 240 1.6 6.4 0.00 0.00 0.00 60 1013.9
20260901145003 27 304 1.6 8.0 0.00 0.00 0.00 62 1013.9
20260901144514 27 155 3.2 8.0 0.00 0.00 0.00 60 1013.9
20260901144007 27 211 1.6 3.2 0.00 0.00 0.00 64 1014.0
20260901143509 27 240 0.0 3.2 0.00 0.00 0.00 61 1014.0
20260901143014 27 219 1.6 4.8 0.00 0.00 0.00 62 1014.1
20260901142507 27 169 0.0 4.8 0.00 0.00 0.00 67 1014.1
20260901142011 27 254 0.0 3.2 0.00 0.00 0.00 66 1014.1
20260901141523 26 286 1.6 4.8 0.00 0.00 0.00 66 1014.2
20260901141002 26 282 0.0 4.8 0.00 0.00 0.00 67 1014.2
20260901140509 26 182 0.0 3.2 0.00 0.00 0.00 70 1014.2
20260901140020 26 182 0.0 3.2 0.00 0.00 0.00 70 1014.1
20260901135516 26 220 0.0 3.2 0.00 0.00 0.00 73 1014.1
20260901135004 26 163 0.0 3.2 0.00 0.00 0.00 76 1014.1
20260901134522 25 136 0.0 3.2 0.00 0.00 0.00 74 1014.2
20260901134007 25 159 0.0 3.2 0.00 0.00 0.00 76 1014.1
20260901133503 25 78 0.0 3.2 0.00 0.00 0.00 78 1014.1
20260901133019 25 78 0.0 3.2 0.00 0.00 0.00 80 1014.1
20260901132511 24 78 0.0 3.2 0.00 0.00 0.00 81 1014.0
20260901132006 24 78 0.0 1.6 0.00 0.00 0.00 80 1014.1
20260901131506 24 78 0.0 1.6 0.00 0.00 0.00 81 1014.1
20260901131010 23 78 0.0 3.2 0.00 0.00 0.00 81 1014.2
20260901130515 24 78 0.0 3.2 0.00 0.00 0.00 81 1014.1
20260901130025 23 144 0.0 3.2 0.00 0.00 0.00 82 1014.1
20260901125509 23 139 0.0 3.2 0.00 0.00 0.00 83 1014.0
20260901125013 23 153 0.0 4.8 0.00 0.00 0.00 84 1014.0
20260901124519 23 169 0.0 4.8 0.00 0.00 0.00 82 1014.0
20260901124007 23 155 0.0 3.2 0.00 0.00 0.00 84 1013.9
20260901123507 23 187 0.0 3.2 0.00 0.00 0.00 84 1013.8
20260901123017 23 187 0.0 3.2 0.00 0.00 0.00 84 1013.8
20260901122508 22 187 0.0 3.2 0.00 0.00 0.00 84 1013.6
20260901122009 22 187 0.0 3.2 0.00 0.00 0.00 85 1013.6
20260901121514 22 187 0.0 3.2 0.00 0.00 0.00 85 1013.6
20260901121012 22 187 0.0 3.2 0.00 0.00 0.00 85 1013.4
20260901120509 22 187 0.0 1.6 0.00 0.00 0.00 85 1013.4
20260901120011 22 187 0.0 0.0 0.00 0.00 0.00 85 1013.4
20260901115513 22 187 0.0 0.0 0.00 0.00 0.00 85 1013.4
20260901115011 22 187 0.0 3.2 0.00 0.00 0.00 85 1013.4
20260901114517 22 187 0.0 3.2 0.00 0.00 0.00 85 1013.4
20260901114016 22 187 0.0 3.2 0.00 0.00 0.00 86 1013.4
20260901113512 22 187 0.0 3.2 0.00 0.00 0.00 86 1013.5
20260901113014 22 187 0.0 1.6 0.00 0.00 0.00 84 1013.4
20260901112507 22 187 0.0 0.0 0.00 0.00 0.00 86 1013.5
20260901112011 22 187 0.0 3.2 0.00 0.00 0.00 87 1013.5
20260901111514 22 187 0.0 3.2 0.00 0.00 0.00 87 1013.5
20260901111013 22 187 0.0 3.2 0.00 0.00 0.00 87 1013.6
20260901110509 23 187 0.0 3.2 0.00 0.00 0.00 86 1013.7
20260901110031 23 187 0.0 3.2 0.00 0.00 0.00 87 1013.6
20260901105512 23 187 0.0 3.2 0.00 0.00 0.00 86 1013.6
20260901105017 23 187 0.0 0.0 0.00 0.00 0.00 86 1013.5
20260901104531 23 187 0.0 1.6 0.00 0.00 0.00 86 1013.5
20260901104013 23 187 0.0 1.6 0.00 0.00 0.00 86 1013.6
20260901103510 23 187 0.0 1.6 0.00 0.00 0.00 86 1013.6
20260901103027 23 187 0.0 0.0 0.00 0.00 0.00 86 1013.6
20260901102515 23 187 0.0 0.0 0.00 0.00 0.00 86 1013.6
20260901102015 23 187 0.0 0.0 0.00 0.00 0.00 86 1013.7
20260901101525 23 187 0.0 3.2 0.00 0.00 0.00 86 1013.7
20260901101008 23 187 0.0 3.2 0.00 0.00 0.00 86 1013.7
20260901100503 23 187 0.0 3.2 0.00 0.00 0.00 86 1013.8